Needles, CA

6:29 AM PST on February 12, 2016 (GMT -0800)
Needles

Weather History for KEED - September, 2013

Change the Weather History Date:

Saturday, September 21, 2013

  Actual Average Record
Temperature  
Mean Temperature 90 °F 86 °F  
Max Temperature 100 °F 99 °F 112 °F (1919)
Min Temperature 81 °F 72 °F 40 °F (1910)
Degree Days  
Heating Degree Days 0    
Cooling Degree Days 26    
Growing Degree Days 40 (Base 50)    
Moisture  
Dew Point 39 °F    
Average Humidity 18    
Maximum Humidity 32    
Minimum Humidity 5    
Precipitation  
Precipitation 0.00 in 0.01 in 0.43 in (1990)
Month to date precipitation 0.34  
Year to date precipitation 3.36  
Sea Level Pressure  
Sea Level Pressure 29.58 in    
Wind  
Wind Speed 8 mph (SW)    
Max Wind Speed 23 mph    
Max Gust Speed 32 mph    
Visibility 10 miles    
Events      
T = Trace of Precipitation, MM = Missing Value Source: NWS Daily Summary

Daily Weather History Graph

Daily Weather History Graph

Search for Another Location

Airport or City:

Trip Planner

Search our weather history database for the weather conditions in past years. The results will help you decide how hot, cold, wet, or windy it might be!

Date:

Astronomy

Sep. 21, 2013 Rise Set
Actual Time 6:26 AM PDT 6:36 PM PDT
Civil Twilight 6:00 AM PDT 7:01 PM PDT
Nautical Twilight 5:31 AM PDT 7:30 PM PDT
Astronomical Twilight 5:01 AM PDT 8:00 PM PDT
Moon 7:57 PM PDT (9/21) 8:41 AM PDT (9/21)
Length of Visible Light 13h 00m
Length of Day
12h 10m
Waning Gibbous, 94% of the Moon is Illuminated
Sep 21
Waning Gibbous
Sep 26
Last Quarter
Oct 4
New
Oct 11
First Quarter
Oct 18
Full

Hourly Weather History & Observations

Time (PDT) Temp. Dew Point Humidity Pressure Visibility Wind Dir Wind Speed Gust Speed Precip Events Conditions
12:56 AM 84.9 °F 39.9 °F 20% 29.62 in 10.0 mi Calm Calm - N/A   Clear
1:56 AM 84.9 °F 39.0 °F 20% 29.63 in 10.0 mi West 3.5 mph - N/A   Clear
2:56 AM 84.9 °F 46.9 °F 27% 29.62 in 10.0 mi West 10.4 mph - N/A   Clear
3:56 AM 84.9 °F 46.9 °F 27% 29.62 in 10.0 mi Calm Calm - N/A   Clear
4:56 AM 82.9 °F 46.9 °F 28% 29.63 in 10.0 mi SSW 3.5 mph - N/A   Clear
5:56 AM 81.0 °F 46.9 °F 30% 29.65 in 10.0 mi West 8.1 mph - N/A   Clear
6:56 AM 82.0 °F 48.0 °F 30% 29.67 in 10.0 mi SW 5.8 mph - N/A   Clear
7:56 AM 82.9 °F 50.0 °F 32% 29.68 in 10.0 mi Calm Calm - N/A   Clear
8:56 AM 88.0 °F 48.9 °F 26% 29.68 in 10.0 mi East 4.6 mph - N/A   Clear
9:56 AM 90.0 °F 48.0 °F 24% 29.68 in 10.0 mi ESE 3.5 mph - N/A   Clear
10:56 AM 95.0 °F 44.1 °F 17% 29.65 in 10.0 mi SSW 19.6 mph 27.6 mph N/A   Clear
11:56 AM 97.0 °F 44.1 °F 16% 29.64 in 10.0 mi SSW 17.3 mph 26.5 mph N/A   Clear
12:56 PM 99.0 °F 48.0 °F 18% 29.60 in 10.0 mi South 19.6 mph 25.3 mph N/A   Clear
1:56 PM 100.0 °F 43.0 °F 14% 29.57 in 10.0 mi SSW 19.6 mph 27.6 mph N/A   Clear
2:56 PM 100.0 °F 39.9 °F 13% 29.54 in 10.0 mi SW 19.6 mph 25.3 mph N/A   Clear
3:56 PM 100.0 °F 41.0 °F 13% 29.51 in 10.0 mi South 19.6 mph 25.3 mph N/A   Clear
4:56 PM 99.0 °F 48.0 °F 18% 29.49 in 10.0 mi South 13.8 mph 32.2 mph N/A   Clear
5:56 PM 99.0 °F 28.0 °F 8% 29.48 in 10.0 mi WSW 17.3 mph 25.3 mph N/A   Clear
6:56 PM 95.0 °F 14.0 °F 5% 29.47 in 10.0 mi WSW 23.0 mph 29.9 mph N/A   Clear
7:56 PM 93.9 °F 17.1 °F 6% 29.49 in 10.0 mi SW 15.0 mph 25.3 mph N/A   Clear
8:56 PM 89.1 °F 21.0 °F 8% 29.50 in 10.0 mi WSW 10.4 mph - N/A   Clear
9:56 PM 90.0 °F 27.0 °F 10% 29.50 in 10.0 mi WSW 11.5 mph 21.9 mph N/A   Clear
10:56 PM 84.0 °F 28.9 °F 14% 29.50 in 10.0 mi SW 8.1 mph - N/A   Clear
11:56 PM 82.0 °F 28.9 °F 14% 29.51 in 10.0 mi South 8.1 mph - N/A   Clear